Temp
84 91 93 91 72 61 61 58 68 76 80 86 87 82 77 78 72 62 80 84 83 82 80 80 80 80 79 79 79 78 78 78 78 78 78 78 78 78 78 78 78 78 79 78 78 78 78 78 78
94 96 95 82 59 56 64 67 74 79 84 88 87 85 81 72 80 77 77 83 84 82 81 80 80 79 79 79 78 78 78 78 78 78 78 78 78 78 78 78 78 78 78 78 78 78 78 78 77
89 96 71 75 60 54 57 80 82 85 88 88 86 88 81 74 80 79 82 83 83 82 81 80 79 79 79 79 78 78 78 78 78 78 78 77 77 77 77 77 77 78 78 78 78 77 77 77 77
92 73 71 58 58 62 68 83 87 86 88 90 89 76 81 85 81 82 83 84 82 83 84 79 79 79 79 78 78 78 78 78 77 77 77 77 77 77 77 77 77 77 77 77 78 77 77 77 76
95 73 69 71 66 78 80 88 89 85 87 88 88 76 74 82 85 85 84 86 83 83 83 82 79 79 79 78 78 78 77 77 77 77 77 77 77 77 77 77 77 78 77 77 77 77 77 77 76
84 81 70 69 77 84 87 90 89 86 88 88 85 79 76 83 83 84 86 85 85 85 85 81 79 79 78 78 78 77 77 77 77 77 77 77 77 77 76 77 77 77 77 77 77 76 76 76 76
83 82 76 80 80 82 85 93 86 87 87 85 91 76 78 81 87 87 87 88 88 89 86 83 82 80 78 78 77 77 77 77 76 76 76 76 77 77 77 76 76 76 76 76 76 76 76 76 76
84 87 81 84 78 79 87 90 92 87 84 94 93 78 73 83 88 89 89 87 89 89 87 86 83 82 80 79 77 77 77 76 76 76 76 76 77 77 77 76 76 75 75 75 76 76 75 76 76
96 82 74 79 81 83 90 85 91 94 89 91 91 88 87 88 89 88 88 88 90 88 91 89 86 84 83 83 79 77 77 77 76 76 76 76 76 78 78 78 77 76 75 75 75 76 75 76 76
77 61 79 86 91 86 90 89 89 88 87 86 86 89 89 88 87 86 85 84 85 87 90 90 85 87 87 86 78 79 79 78 76 77 75 78 80 78 81 81 77 76 76 76 76 76 76 76 75
80 72 85 83 92 93 90 90 94 89 82 85 85 84 85 86 86 86 89 89 88 89 89 90 85 85 88 85 82 84 80 79 80 81 79 79 80 77 78 77 76 72 74 75 75 74 73 75 76
84 89 90 90 93 91 89 93 87 91 88 95 93 89 86 84 85 86 88 90 89 87 86 89 88 86 84 86 84 84 84 81 82 80 80 77 77 76 77 77 77 76 77 76 75 76 76 76 76
73 82 92 94 93 92 94 90 91 91 95 95 95 90 86 85 86 87 89 90 88 83 83 87 86 85 84 84 82 83 82 82 81 82 80 79 75 75 74 76 76 76 76 76 75 75 74 74 75
85 79 92 94 93 93 89 90 92 89 96 92 92 90 88 86 87 87 86 87 86 83 82 86 87 82 82 81 83 81 80 81 80 79 80 79 75 73 73 74 74 75 75 76 74 73 72 72 74
93 86 91 83 81 90 93 84 69 72 77 92 90 91 91 89 88 86 87 85 86 83 83 82 83 81 80 79 80 80 81 82 77 78 78 78 77 76 74 71 70 73 74 74 74 73 73 72 74
87 81 71 71 69 81 87 74 69 67 67 89 90 90 90 89 89 89 88 85 85 85 82 82 87 81 78 78 79 80 80 80 80 78 78 77 75 76 71 69 70 74 72 71 71 70 70 70 70
81 71 69 76 75 85 86 79 82 75 88 89 89 90 89 89 88 85 85 86 85 84 81 81 82 81 78 77 78 78 80 78 78 78 76 74 75 73 70 72 72 72 71 69 69 68 68 67 67
71 77 77 77 82 86 84 83 89 92 89 88 88 89 89 89 87 86 86 86 85 85 82 80 80 80 78 78 77 78 78 76 76 75 77 74 78 78 73 71 71 70 69 68 67 65 67 66 67
79 81 80 84 89 82 78 83 86 87 85 84 68 70 87 89 89 88 87 87 84 83 81 78 78 74 77 77 76 75 73 72 76 77 75 77 77 77 73 72 71 70 69 68 68 67 65 63 65
80 79 79 84 89 85 82 80 83 74 69 66 62 60 84 89 88 85 85 84 80 80 76 77 74 76 75 76 73 72 73 75 76 76 77 78 78 77 75 72 70 70 68 66 65 65 65 65 64
80 77 78 78 85 87 81 76 69 70 67 66 61 64 75 85 84 81 82 81 82 76 73 74 73 73 73 70 68 69 68 73 73 73 74 74 76 77 74 73 70 69 68 66 65 65 63 62 63
73 84 82 79 78 70 79 60 62 66 64 64 64 66 73 76 75 73 84 81 70 65 67 72 71 64 61 62 65 66 67 68 72 73 74 73 75 75 73 71 66 67 67 64 64 65 62 60 58
77 85 82 80 74 71 70 61 64 66 60 64 68 71 74 86 89 80 81 80 67 69 67 67 65 63 63 61 64 70 70 72 71 72 72 72 73 74 72 68 67 67 66 64 64 63 62 60 59
87 83 81 77 72 59 62 59 62 62 65 73 80 85 85 86 85 76 80 76 68 67 67 67 66 65 65 69 73 70 69 70 69 70 68 70 66 63 68 71 68 65 65 64 64 63 62 60 60
83 77 63 58 56 47 60 60 58 70 77 79 80 82 84 85 74 77 78 75 70 64 68 69 66 63 65 69 68 71 69 66 69 68 67 64 65 68 68 67 67 65 65 65 64 62 61 60 59
77 74 63 52 46 50 66 54 56 72 81 84 85 83 82 76 64 65 69 71 71 70 72 72 71 70 66 70 70 71 70 70 70 66 64 64 63 67 66 66 66 65 65 65 63 61 60 60 59
75 69 78 64 63 56 61 62 68 70 75 81 82 82 77 73 65 65 64 65 70 74 73 73 72 72 74 72 70 71 70 69 66 66 65 64 63 66 65 65 64 65 65 64 62 62 60 60 59
75 78 64 64 49 47 56 57 55 67 73 77 79 80 80 78 70 70 71 73 74 75 73 74 75 74 74 73 71 72 69 65 65 65 64 64 64 64 64 64 63 63 64 63 61 62 62 60 59
64 62 60 62 54 49 52 54 70 71 74 74 78 79 80 76 77 77 77 77 77 77 79 76 76 75 74 72 70 67 67 67 66 64 64 64 63 63 63 63 62 62 61 62 61 60 62 61 60
73 62 53 54 59 65 62 47 69 73 77 76 77 78 79 80 80 80 78 77 76 78 78 77 75 74 74 72 70 68 67 65 64 63 61 60 58 59 60 60 60 61 62 61 60 60 63 60 60
MSLP
1009.79 1009.44 1009.09 1008.54 1008.95 1010.24 1010.24 1010.86 1008.98 1007.19 1006.71 1007.04 1007.57 1007.95 1009.56 1010.61 1011.51 1013.62 1014.63 1014.75 1015.27 1015.93 1016.83 1017.12 1017.37 1017.63 1017.79 1018.05 1018.18 1018.35 1018.54 1018.62 1018.75 1018.82 1018.88 1018.96 1018.97 1019.00 1019.01 1019.04 1018.91 1018.96 1018.98 1018.88 1018.87 1018.88 1018.77 1018.70 1018.59
1009.23 1008.75 1008.19 1008.47 1010.61 1010.75 1009.57 1009.25 1008.06 1007.37 1007.22 1007.28 1007.54 1008.23 1009.15 1011.19 1012.43 1013.81 1014.75 1015.06 1015.27 1016.07 1016.66 1017.13 1017.43 1017.81 1017.88 1018.15 1018.33 1018.48 1018.72 1018.80 1018.92 1019.02 1019.07 1019.11 1019.17 1019.18 1019.20 1019.21 1019.22 1019.14 1019.13 1019.10 1019.07 1019.02 1018.96 1018.89 1018.85
1009.91 1009.23 1010.25 1010.02 1011.29 1011.45 1009.81 1007.24 1006.93 1006.94 1006.92 1006.50 1007.16 1008.25 1010.07 1011.85 1012.96 1013.93 1014.77 1015.21 1015.57 1016.29 1016.74 1017.33 1017.68 1017.89 1018.01 1018.24 1018.54 1018.70 1018.84 1018.96 1019.02 1019.18 1019.21 1019.32 1019.37 1019.42 1019.42 1019.47 1019.41 1019.41 1019.26 1019.21 1019.12 1019.15 1019.00 1019.02 1018.96
1009.39 1011.11 1011.41 1011.24 1010.86 1010.42 1008.56 1006.66 1006.32 1006.25 1006.69 1006.61 1007.18 1009.42 1011.37 1012.20 1013.06 1014.09 1014.81 1014.89 1015.64 1016.07 1016.50 1017.50 1017.78 1017.94 1018.07 1018.38 1018.61 1018.75 1018.87 1019.06 1019.14 1019.28 1019.41 1019.45 1019.49 1019.61 1019.56 1019.59 1019.50 1019.47 1019.36 1019.25 1019.12 1019.07 1019.02 1018.92 1018.90
1008.33 1009.71 1009.68 1008.96 1008.56 1007.47 1007.48 1006.00 1005.83 1006.04 1006.08 1006.51 1007.27 1009.70 1011.54 1012.80 1013.35 1014.15 1014.76 1015.03 1015.45 1015.95 1016.56 1017.56 1018.02 1018.05 1018.21 1018.48 1018.61 1018.83 1018.96 1019.10 1019.17 1019.30 1019.47 1019.48 1019.55 1019.60 1019.61 1019.62 1019.62 1019.38 1019.33 1019.40 1019.28 1019.12 1019.05 1018.88 1018.80
1006.34 1007.65 1007.79 1006.38 1006.11 1005.76 1005.81 1005.52 1005.49 1006.01 1006.26 1006.72 1007.42 1009.59 1011.68 1012.85 1013.49 1014.05 1014.67 1014.95 1015.35 1015.60 1016.16 1017.45 1017.97 1018.23 1018.28 1018.42 1018.69 1018.88 1019.00 1018.99 1019.19 1019.31 1019.34 1019.33 1019.42 1019.39 1019.48 1019.52 1019.59 1019.55 1019.47 1019.51 1019.34 1019.30 1019.16 1018.93 1018.78
1006.05 1005.35 1005.23 1004.37 1004.54 1004.68 1004.93 1004.87 1005.21 1005.50 1005.77 1006.83 1007.28 1009.13 1011.55 1012.43 1012.76 1013.68 1014.22 1014.64 1014.74 1014.97 1015.83 1016.94 1017.68 1018.12 1018.30 1018.38 1018.66 1018.87 1019.01 1019.04 1019.08 1019.19 1019.29 1019.28 1019.26 1019.21 1019.30 1019.31 1019.42 1019.45 1019.48 1019.44 1019.35 1019.25 1019.06 1018.96 1018.79
1006.35 1004.83 1003.93 1003.22 1003.92 1004.30 1004.97 1004.86 1005.31 1005.80 1006.35 1006.98 1007.50 1008.48 1010.68 1011.50 1012.29 1013.05 1013.46 1013.95 1014.08 1014.49 1015.15 1015.84 1016.66 1017.52 1018.01 1018.18 1018.46 1018.76 1018.98 1019.06 1019.08 1019.05 1018.99 1019.04 1019.05 1019.02 1019.07 1019.09 1019.16 1019.15 1019.25 1019.26 1019.18 1019.09 1018.86 1018.69 1018.50
1004.39 1005.02 1004.82 1004.00 1003.41 1003.75 1004.56 1004.78 1005.50 1005.88 1006.20 1006.68 1007.53 1008.40 1009.46 1010.89 1011.88 1012.16 1012.60 1013.07 1013.12 1013.78 1013.89 1014.52 1015.48 1016.21 1016.68 1017.35 1018.10 1018.42 1018.75 1018.91 1018.89 1018.84 1018.82 1018.84 1018.66 1018.34 1018.68 1018.63 1018.65 1018.77 1018.78 1018.83 1018.85 1018.70 1018.46 1018.28 1018.06
1005.59 1008.16 1005.46 1004.70 1003.29 1003.66 1003.87 1004.26 1004.85 1005.32 1005.72 1006.72 1007.96 1008.77 1009.81 1010.78 1011.27 1011.40 1011.87 1012.21 1012.61 1012.74 1013.21 1014.11 1014.91 1015.27 1015.83 1016.56 1017.41 1017.73 1018.01 1018.21 1018.24 1018.17 1018.32 1018.05 1017.93 1018.04 1018.00 1017.97 1018.28 1018.48 1018.36 1018.37 1018.52 1018.39 1018.09 1018.02 1017.62
1005.52 1006.27 1005.45 1004.58 1003.77 1003.52 1003.41 1003.60 1003.90 1004.35 1005.32 1006.19 1006.67 1008.44 1009.48 1010.28 1010.72 1010.93 1010.89 1011.05 1011.61 1012.15 1012.99 1013.76 1014.69 1015.16 1015.37 1015.77 1016.36 1016.40 1016.81 1017.10 1017.21 1017.30 1017.70 1017.60 1017.74 1017.82 1017.57 1017.42 1017.88 1018.21 1018.07 1018.01 1017.99 1017.92 1017.82 1017.73 1017.26
1004.29 1004.79 1004.28 1003.90 1003.64 1003.59 1003.33 1003.28 1004.15 1004.03 1004.75 1005.26 1006.14 1007.72 1008.93 1009.59 1010.05 1010.38 1010.39 1010.51 1011.21 1012.13 1012.89 1013.57 1014.45 1015.12 1015.30 1015.43 1015.72 1015.79 1015.93 1016.34 1016.45 1017.02 1017.27 1017.47 1017.49 1017.44 1017.34 1017.37 1017.21 1017.28 1017.12 1017.13 1017.06 1017.06 1017.01 1017.06 1017.08
1005.01 1004.81 1003.99 1003.63 1003.80 1003.58 1003.51 1003.46 1003.55 1003.85 1004.10 1005.55 1006.08 1007.31 1008.35 1009.00 1009.47 1009.93 1010.09 1010.37 1010.99 1012.08 1013.00 1013.52 1013.83 1014.46 1014.86 1015.25 1015.39 1015.66 1015.70 1015.87 1016.26 1016.43 1016.69 1017.01 1017.25 1017.36 1017.45 1017.25 1017.16 1017.05 1016.93 1016.72 1016.74 1016.78 1016.96 1017.09 1016.97
1005.10 1004.70 1003.99 1003.51 1003.56 1003.61 1003.81 1003.77 1004.01 1005.22 1004.87 1005.47 1006.04 1006.60 1007.49 1008.25 1008.85 1009.41 1009.87 1010.26 1010.87 1011.88 1012.77 1013.31 1013.62 1014.10 1014.67 1015.27 1015.18 1015.44 1015.67 1015.78 1016.02 1016.30 1016.58 1016.80 1017.04 1017.27 1017.22 1017.28 1017.16 1016.93 1016.63 1016.43 1016.65 1016.89 1017.10 1017.13 1016.81
1003.84 1004.12 1003.70 1004.98 1004.82 1003.67 1003.72 1004.46 1006.60 1007.39 1006.40 1005.10 1005.97 1006.24 1006.58 1007.35 1008.28 1008.93 1009.62 1010.21 1010.82 1011.67 1012.54 1013.29 1013.51 1014.12 1014.75 1015.34 1015.35 1015.54 1015.44 1015.20 1015.71 1015.83 1016.03 1016.36 1016.66 1016.87 1017.10 1017.36 1017.42 1016.84 1016.48 1016.50 1016.70 1016.73 1016.85 1016.76 1016.30
1003.57 1004.55 1005.53 1006.17 1007.12 1005.19 1004.46 1005.32 1007.16 1007.14 1007.55 1005.27 1005.70 1005.98 1006.20 1006.71 1007.57 1008.34 1009.09 1010.07 1010.87 1011.53 1012.31 1012.99 1013.38 1014.14 1014.91 1015.41 1015.35 1015.43 1015.19 1015.18 1015.28 1015.48 1015.44 1015.80 1016.20 1016.49 1016.99 1017.04 1017.10 1016.55 1016.65 1016.67 1016.81 1016.76 1016.67 1016.63 1016.49
1004.33 1004.79 1005.51 1005.75 1005.42 1004.43 1003.80 1003.91 1005.12 1005.90 1005.09 1005.02 1005.40 1005.57 1005.93 1006.54 1007.20 1008.00 1008.81 1009.79 1010.68 1011.45 1011.98 1012.76 1013.39 1013.94 1014.59 1015.21 1015.43 1015.37 1015.33 1015.38 1015.26 1015.30 1015.46 1015.77 1016.15 1016.30 1016.77 1016.36 1016.34 1016.23 1016.45 1016.81 1016.91 1016.72 1016.55 1016.48 1016.42
1004.92 1003.58 1003.73 1003.78 1003.77 1003.22 1002.84 1002.76 1002.99 1003.43 1004.37 1004.96 1004.94 1005.19 1005.27 1005.71 1006.52 1007.23 1007.99 1009.18 1010.38 1011.03 1011.84 1012.73 1013.50 1013.97 1014.54 1014.81 1015.28 1015.33 1015.07 1015.26 1015.34 1015.23 1015.32 1015.78 1015.57 1015.79 1016.04 1016.33 1016.32 1016.37 1016.49 1016.90 1016.91 1016.84 1016.63 1016.53 1016.26
1004.92 1003.46 1002.62 1002.07 1002.42 1002.74 1003.62 1002.49 1002.95 1004.08 1005.62 1005.49 1006.32 1006.24 1005.16 1005.25 1005.37 1006.36 1007.43 1008.51 1009.59 1010.82 1012.06 1013.07 1013.52 1013.73 1013.93 1014.14 1014.84 1015.17 1014.92 1014.87 1015.01 1014.60 1015.12 1015.39 1015.50 1015.57 1015.73 1016.03 1016.34 1016.29 1016.47 1016.62 1016.60 1016.49 1016.39 1016.34 1016.12
1004.54 1003.28 1002.51 1002.16 1001.99 1002.10 1002.33 1002.71 1003.91 1005.79 1007.98 1009.33 1009.91 1009.07 1005.90 1004.92 1005.13 1005.97 1007.00 1007.77 1009.05 1010.89 1012.33 1013.10 1013.74 1013.70 1013.55 1013.94 1014.26 1014.96 1014.80 1014.70 1014.41 1014.21 1014.50 1014.84 1015.07 1015.12 1015.26 1015.49 1015.66 1015.96 1016.40 1016.44 1016.40 1016.26 1016.05 1015.90 1016.01
1003.91 1003.31 1002.62 1002.55 1002.13 1002.14 1002.45 1003.70 1006.03 1007.84 1008.43 1008.79 1009.50 1011.06 1006.47 1006.45 1006.08 1006.13 1006.99 1008.75 1009.06 1010.60 1011.89 1013.15 1013.40 1013.68 1014.95 1013.92 1014.61 1014.90 1014.88 1015.13 1014.56 1014.25 1014.31 1014.63 1014.78 1014.66 1014.66 1014.86 1015.20 1015.66 1015.91 1015.85 1016.16 1016.30 1016.04 1015.82 1015.67
1004.33 1003.34 1003.26 1003.30 1002.76 1002.87 1004.37 1005.97 1008.50 1009.54 1010.01 1009.01 1010.75 1010.69 1007.81 1008.39 1008.83 1007.60 1007.56 1008.79 1010.54 1012.89 1013.33 1013.46 1013.84 1014.53 1015.74 1014.51 1015.40 1015.92 1015.10 1014.77 1013.94 1013.60 1013.83 1014.19 1013.97 1013.94 1014.15 1014.81 1015.04 1015.75 1015.62 1015.89 1015.83 1016.12 1015.99 1015.97 1015.91
1003.95 1003.51 1003.31 1003.44 1003.82 1004.80 1005.86 1007.69 1008.98 1009.09 1010.74 1009.68 1009.24 1008.71 1008.21 1006.81 1006.48 1007.57 1008.60 1009.57 1011.25 1012.48 1013.01 1013.73 1014.56 1015.25 1015.39 1015.56 1016.35 1014.99 1014.76 1014.51 1014.27 1014.01 1014.21 1014.17 1013.98 1013.94 1014.28 1014.31 1014.65 1015.23 1015.41 1015.58 1015.57 1015.47 1015.78 1015.59 1015.55
1003.09 1002.96 1003.44 1004.36 1005.40 1006.67 1007.92 1009.71 1009.11 1009.48 1009.38 1008.18 1007.24 1006.74 1006.83 1006.84 1007.55 1008.42 1009.02 1010.30 1011.80 1012.65 1013.31 1014.29 1014.90 1015.55 1015.63 1014.95 1014.81 1014.62 1014.45 1014.68 1014.81 1014.47 1014.44 1014.58 1014.57 1015.63 1014.27 1013.60 1014.26 1014.40 1015.23 1015.03 1014.81 1014.89 1015.11 1015.10 1015.00
1002.82 1002.82 1003.97 1005.41 1006.92 1009.53 1008.57 1009.49 1010.28 1009.17 1007.83 1007.05 1006.69 1006.85 1007.04 1007.47 1009.00 1010.30 1010.11 1010.82 1012.11 1013.18 1014.39 1014.68 1014.92 1015.48 1015.75 1014.59 1014.52 1014.44 1014.33 1014.63 1014.61 1014.56 1014.65 1015.01 1014.78 1014.59 1014.35 1014.15 1014.29 1014.53 1014.59 1014.47 1014.39 1014.46 1014.50 1014.42 1014.43
1003.26 1004.01 1004.74 1005.55 1007.65 1008.04 1008.01 1008.88 1009.76 1008.98 1007.26 1006.29 1006.15 1006.76 1007.74 1008.68 1009.83 1012.18 1012.56 1011.55 1013.55 1013.90 1014.00 1014.51 1014.93 1014.94 1014.94 1014.82 1015.02 1014.74 1014.50 1014.16 1014.19 1014.57 1014.72 1015.01 1015.04 1015.04 1014.76 1014.40 1014.32 1014.36 1014.05 1014.04 1013.97 1013.98 1013.93 1013.83 1013.71
1003.94 1005.05 1004.31 1006.31 1007.60 1008.38 1008.97 1009.18 1009.14 1008.70 1007.58 1006.67 1006.31 1006.69 1008.11 1009.44 1011.76 1013.17 1012.27 1013.06 1013.43 1013.54 1013.96 1014.25 1014.61 1014.41 1014.34 1014.41 1014.35 1014.12 1014.17 1014.26 1014.80 1014.86 1014.89 1014.98 1015.11 1015.03 1014.72 1014.62 1014.36 1014.19 1013.86 1013.72 1013.61 1013.53 1013.26 1013.09 1012.98
1006.26 1006.31 1006.51 1007.17 1008.49 1008.98 1008.88 1009.06 1009.14 1008.23 1007.48 1007.36 1006.79 1006.95 1007.57 1009.31 1011.55 1011.97 1012.22 1012.86 1013.14 1013.31 1013.57 1013.76 1013.81 1013.80 1013.66 1013.85 1014.03 1014.09 1014.33 1014.60 1014.91 1014.97 1015.07 1015.17 1015.21 1015.02 1014.75 1014.45 1014.12 1013.75 1013.34 1013.15 1013.12 1012.97 1012.65 1012.46 1012.30
1006.56 1007.10 1009.47 1009.42 1009.77 1009.41 1008.63 1009.61 1009.49 1008.53 1008.08 1008.02 1007.55 1007.81 1008.34 1009.66 1010.55 1011.15 1011.60 1012.44 1012.68 1012.75 1012.69 1013.16 1013.31 1013.38 1013.46 1014.03 1014.33 1014.58 1014.84 1015.04 1015.34 1015.53 1015.56 1015.46 1015.25 1014.90 1014.46 1014.08 1013.78 1013.37 1012.88 1012.62 1012.47 1012.40 1012.05 1011.96 1011.76
1007.50 1007.70 1008.72 1010.20 1007.91 1007.32 1007.97 1011.15 1010.68 1009.39 1008.53 1008.70 1008.42 1008.78 1009.16 1009.42 1010.19 1010.79 1011.55 1012.08 1012.38 1012.32 1012.51 1012.83 1013.27 1013.66 1013.89 1014.30 1014.71 1014.97 1015.26 1015.54 1015.74 1015.86 1015.99 1015.73 1015.39 1015.01 1014.62 1014.17 1013.64 1013.18 1012.75 1012.38 1012.06 1011.74 1011.30 1011.39 1011.26
Wind_Speed
9 10 8 8 1 3 7 2 7 13 11 13 11 11 16 15 9 9 9 11 17 15 12 12 12 13 13 13 13 13 13 13 12 12 12 12 12 12 12 12 12 11 11 10 9 8 8 8 8
10 14 8 4 3 3 2 19 12 8 8 10 7 9 12 16 15 14 10 10 15 13 11 11 14 13 13 12 12 12 11 11 11 10 10 10 10 11 11 11 10 10 10 9 8 8 7 6 6
12 14 3 5 3 3 5 10 13 9 6 5 8 13 9 12 14 10 16 14 15 12 10 12 13 13 13 12 11 11 10 9 9 9 9 9 9 9 8 8 8 8 7 7 7 6 6 5 5
5 6 2 0 9 8 9 9 9 15 10 4 17 14 9 9 8 11 17 11 12 15 13 13 13 13 12 11 10 10 9 8 8 7 7 7 7 6 6 6 6 6 5 6 6 5 4 3 4
14 4 4 10 11 12 14 4 9 7 5 9 14 12 10 9 15 17 15 13 13 15 14 13 12 12 12 11 10 10 10 9 8 7 6 5 4 4 4 4 6 7 6 6 6 5 5 3 2
6 7 9 6 8 13 6 7 8 8 8 3 17 14 8 13 16 14 14 13 13 13 14 13 12 11 12 12 11 10 10 10 7 7 6 5 3 3 2 3 6 8 7 7 6 6 7 6 3
11 9 8 5 7 10 6 7 11 3 11 8 7 7 11 15 15 16 13 13 12 13 16 14 12 10 11 12 10 10 9 8 7 5 3 3 4 6 6 6 2 3 5 5 5 6 6 6 8
9 7 15 1 9 11 8 1 9 8 10 8 4 4 10 13 17 16 17 15 16 13 15 17 14 13 11 10 12 10 8 7 6 5 6 7 8 8 7 8 5 1 3 5 6 7 9 11 12
16 5 9 8 6 11 9 10 3 3 8 4 6 8 19 20 19 17 12 15 13 14 16 15 16 15 14 13 11 11 11 10 9 8 10 8 7 10 12 6 6 4 7 6 8 9 13 13 15
9 10 3 15 5 12 10 12 9 6 7 9 9 11 17 19 17 17 18 15 17 17 14 14 12 8 12 12 12 11 11 9 9 10 9 7 2 1 4 4 8 8 10 10 10 13 15 12 8
11 13 7 24 8 5 3 7 11 9 10 9 17 17 19 19 16 15 14 14 13 11 6 13 7 5 8 7 7 6 6 6 6 5 3 2 2 4 5 4 5 5 12 6 9 9 8 8 4
7 16 12 10 7 4 8 5 12 7 10 9 13 19 19 19 17 16 14 12 11 12 9 9 12 8 6 6 5 3 3 3 4 4 6 3 3 1 3 3 2 3 2 4 4 3 2 3 4
13 16 2 9 6 7 8 6 5 8 12 10 10 19 18 17 17 15 11 8 13 12 10 9 11 10 7 2 3 1 2 1 4 1 5 3 1 1 3 4 3 4 4 4 3 2 3 4 5
12 25 12 5 4 5 7 11 10 11 1 11 9 14 18 17 17 15 13 10 9 13 12 10 9 7 7 4 4 1 3 4 3 2 2 5 3 2 2 4 5 5 4 2 3 3 3 4 6
12 12 14 13 23 9 6 11 7 20 33 11 9 11 14 17 15 14 12 9 9 11 12 9 6 9 6 4 3 3 5 5 5 4 6 5 4 3 2 2 5 5 4 3 3 4 5 5 6
11 18 11 7 5 26 4 3 14 27 33 9 11 12 11 13 15 13 13 10 9 9 13 12 9 12 8 5 4 6 3 3 3 2 3 6 6 1 3 4 7 3 3 3 4 3 4 4 6
7 7 14 17 28 21 11 11 17 33 21 11 8 11 10 12 13 9 11 12 11 11 9 11 6 10 11 7 4 6 3 3 5 5 1 4 4 6 6 3 4 4 3 4 4 4 4 3 5
16 17 10 7 12 10 12 12 11 9 11 9 7 7 11 13 15 14 14 14 12 9 9 9 7 5 9 7 6 3 4 3 4 3 2 4 2 1 4 4 4 3 2 4 5 9 6 5 6
26 18 17 13 9 3 21 11 10 18 17 4 19 26 9 10 15 17 15 13 13 9 8 6 8 9 6 6 4 6 5 4 6 2 6 2 1 1 3 2 4 5 3 5 5 5 6 7 7
24 18 17 12 13 8 15 16 7 22 13 14 23 23 10 10 11 16 14 14 10 10 8 8 5 7 7 5 3 1 2 3 2 2 2 3 3 3 4 2 1 2 3 5 7 7 7 6 4
19 19 12 17 18 16 12 9 16 18 19 23 27 18 23 10 7 16 16 13 11 12 12 7 8 7 7 4 2 2 4 5 4 3 4 5 6 5 4 5 3 2 2 3 6 8 9 8 4
22 15 16 16 21 13 9 6 9 11 7 6 14 20 19 9 17 13 14 11 18 15 2 5 2 10 14 19 5 10 5 3 5 2 1 4 5 5 4 3 2 6 2 4 5 6 6 6 7
20 20 20 16 15 16 16 6 2 14 10 11 15 15 20 5 1 9 8 10 18 15 10 6 4 6 3 10 15 5 4 4 4 3 5 4 3 2 1 7 6 3 3 4 6 6 8 6 6
20 21 14 13 6 5 10 5 4 4 8 3 9 10 6 12 5 13 12 13 14 11 6 3 3 3 10 14 10 7 5 5 5 4 4 8 4 6 7 3 3 2 6 7 5 5 7 8 7
23 15 6 11 6 7 14 11 10 14 9 8 6 8 10 10 24 9 7 9 8 9 5 8 6 5 5 6 9 7 4 7 6 4 3 5 6 7 6 6 3 4 5 7 6 7 6 9 8
18 13 9 11 4 9 15 2 1 9 8 7 7 9 10 16 21 14 17 13 17 14 10 15 9 4 5 3 7 6 3 4 5 6 5 4 5 7 8 8 8 10 9 9 8 6 6 9 7
16 9 10 3 7 5 6 5 3 5 10 11 11 7 12 12 15 6 17 10 6 11 12 9 5 3 3 4 5 4 5 6 7 7 6 4 5 6 9 10 12 12 10 8 9 7 8 9 9
2 5 8 4 4 7 5 11 4 2 6 10 12 11 8 15 16 15 13 12 10 8 4 2 3 4 4 3 3 6 8 6 2 3 6 8 8 9 9 10 11 11 11 9 9 9 10 9 6
9 6 11 9 5 8 5 4 7 9 11 10 13 14 13 16 13 9 12 10 6 3 0 5 4 7 7 10 8 7 6 9 10 9 9 10 10 11 11 12 11 11 8 8 9 11 11 10 9
2 11 18 15 1 7 7 2 8 11 10 8 11 10 12 11 12 12 10 5 7 6 10 7 7 10 9 10 10 9 9 9 8 8 8 8 7 8 10 11 9 10 11 12 11 13 8 9 10
Wind_Direction
210 216 227 248 215 34 152 238 260 38 58 76 65 74 83 49 15 109 103 111 121 116 123 122 122 108 100 92 87 83 85 86 84 82 78 71 70 68 64 60 59 55 50 50 48 41 37 30 27
230 227 231 310 18 337 92 190 130 94 87 99 119 108 85 74 88 125 111 128 120 126 132 128 117 119 113 108 103 98 94 90 83 78 74 71 70 69 65 59 55 54 52 48 44 38 29 19 9
264 272 36 346 100 228 261 75 88 102 124 168 118 84 56 96 106 138 119 136 124 133 125 124 128 124 118 116 111 107 101 94 87 78 75 74 70 66 62 56 50 40 39 41 39 35 36 20 3
239 12 238 271 149 215 223 101 145 128 106 319 105 93 90 96 108 134 138 147 142 148 139 135 134 130 126 124 118 110 102 94 87 85 82 81 80 67 53 44 37 18 17 12 11 7 4 14 1
227 202 220 181 189 160 210 55 74 91 80 89 85 92 98 98 119 140 143 153 136 145 130 138 139 134 130 126 122 119 115 110 103 95 92 92 84 68 39 32 15 2 10 357 352 15 358 337 348
272 153 258 194 79 113 103 99 116 85 83 143 108 115 109 134 141 147 160 155 159 153 141 143 144 141 137 134 132 129 124 117 108 103 93 110 130 107 95 60 25 7 4 355 16 11 3 5 338
297 272 231 161 128 122 122 7 89 79 113 66 95 111 133 155 160 153 175 142 177 162 141 143 151 154 150 144 140 138 133 129 131 139 147 170 186 185 162 132 63 6 341 332 330 330 327 310 295
245 302 294 174 124 101 85 158 82 57 64 101 350 85 158 158 160 163 170 172 180 162 166 161 154 166 172 162 155 151 157 162 169 188 214 212 221 217 177 153 177 119 299 294 297 285 283 281 280
225 330 52 351 75 124 166 118 123 88 135 100 86 66 141 151 170 168 161 180 183 186 189 158 167 172 181 161 165 165 182 189 199 207 234 235 232 205 188 174 166 184 230 243 259 261 267 274 280
86 328 334 279 125 136 149 152 158 173 143 144 133 109 135 156 181 180 175 186 205 195 170 151 143 157 151 160 157 182 186 194 201 202 197 223 155 233 265 246 189 208 231 228 242 253 263 274 262
149 190 237 315 49 348 110 233 165 186 183 186 176 150 158 166 183 188 196 186 175 152 147 142 123 138 189 140 173 196 182 180 191 190 176 179 306 222 220 221 192 206 229 233 214 236 241 260 356
172 184 232 196 93 275 263 181 194 202 154 123 117 151 166 177 185 192 203 196 171 152 147 144 154 177 233 151 195 141 156 165 193 156 181 200 227 204 350 300 11 259 239 243 240 257 3 316 279
45 316 217 125 220 232 283 261 274 218 136 138 149 155 174 185 187 193 208 213 154 153 153 204 165 180 163 251 130 275 15 226 48 225 150 183 339 314 284 291 303 278 256 246 262 325 355 330 288
162 222 265 243 236 226 248 266 213 8 234 159 184 183 178 190 195 192 199 197 156 150 162 198 182 127 127 194 189 174 192 214 191 191 220 175 206 256 315 318 308 306 307 313 342 351 322 272 268
217 239 254 21 360 243 254 264 37 38 317 163 206 213 193 185 193 193 187 185 178 151 159 199 170 137 143 201 187 230 262 210 189 173 177 190 209 246 292 357 285 286 270 309 293 265 261 257 249
266 15 355 22 318 275 232 223 131 149 237 192 228 206 211 182 193 196 175 177 173 172 175 181 194 152 163 194 206 226 274 342 339 297 199 187 192 173 230 241 253 302 353 297 295 266 268 279 298
11 242 207 227 196 238 213 286 183 191 208 205 213 223 205 200 186 178 173 174 178 192 173 158 194 164 166 195 226 224 275 247 234 255 33 143 183 212 233 230 275 284 337 334 311 286 254 276 290
259 290 213 196 204 240 262 264 274 271 199 211 201 261 207 204 185 174 174 174 184 189 149 155 170 221 169 186 201 264 254 273 300 250 174 163 192 309 43 346 340 359 17 300 294 291 290 283 275
279 304 306 350 339 157 297 291 329 12 356 325 44 328 260 228 186 175 178 180 173 168 148 157 183 191 192 185 201 233 224 214 227 186 127 122 91 56 35 316 344 351 323 280 272 279 289 292 288
263 279 284 331 321 304 270 279 309 45 27 57 40 269 288 239 185 175 168 172 151 148 137 158 215 221 205 191 188 337 5 323 334 295 305 176 151 207 210 154 237 263 331 316 295 286 280 265 273
297 309 320 313 298 292 324 317 32 15 34 29 17 278 278 272 260 164 172 175 159 148 135 185 212 232 340 235 36 311 12 292 257 229 220 149 193 237 207 198 198 237 253 277 328 309 306 299 276
297 310 306 304 293 304 6 326 72 36 30 83 229 252 260 9 291 167 180 144 84 76 20 244 161 76 63 360 293 246 218 251 248 229 229 198 220 229 208 52 36 278 301 314 282 287 302 305 284
285 282 289 312 4 9 0 353 81 55 352 278 253 261 272 185 31 115 113 100 112 143 195 214 40 63 92 172 230 255 249 341 355 356 7 345 291 264 152 244 213 208 226 244 276 287 296 289 281
254 268 292 324 326 307 34 263 75 111 209 208 28 16 27 5 77 114 92 98 147 163 168 125 231 178 205 205 213 222 249 315 325 300 348 312 20 294 231 180 171 192 268 257 264 262 272 278 272
293 285 292 312 345 318 213 238 30 336 26 9 42 5 38 35 33 16 129 165 127 105 217 140 103 85 272 43 348 317 285 214 263 289 286 330 322 329 344 11 323 275 281 291 276 273 261 271 269
281 274 261 266 210 228 282 160 240 274 349 4 44 63 33 43 67 340 24 88 87 111 100 107 134 85 25 61 279 313 354 340 334 13 20 325 338 326 334 326 330 308 292 285 288 285 263 266 267
301 265 299 195 245 309 226 111 26 304 284 10 8 61 87 92 122 159 86 88 64 94 86 70 111 188 263 251 267 294 32 35 32 12 355 334 296 315 324 325 317 304 296 297 290 283 266 260 266
212 0 346 47 6 334 289 114 164 119 34 14 3 50 58 106 115 104 101 98 87 76 85 153 10 332 301 311 23 20 27 29 1 328 339 344 333 322 309 298 290 294 286 285 283 288 283 282 273
16 22 15 351 138 212 283 52 344 25 43 7 14 28 41 95 105 105 109 89 67 139 19 43 55 4 34 46 35 26 10 16 10 1 347 336 330 320 309 308 315 305 283 292 294 290 275 278 278
332 186 181 240 278 269 262 143 322 345 39 24 19 49 36 22 38 60 71 42 24 28 35 26 36 27 11 22 18 15 22 14 351 1 4 339 332 329 320 310 300 299 298 296 284 280 293 287 277